Location: Apeadero de Los Molinos-Guadarrama
(40.7091°N, 4.0689°W)
Time: 00:09:12
(UTC+00:00)

ISS - Pass Details

Date: 02 October 2021
Orbit: 417 x 423 km, 51.6° (Epoch: 18 October)

Event Time Altitude Azimuth Distance (km) Brightness Sun altitude
Rises 19:04:18 0° 311° (NW) 2,365 1.1 -13.7°
Reaches altitude 10° 19:06:32 10° 321° (NW) 1,500 -0.3 -14.1°
Maximum altitude 19:09:38 34° 28° (NNE) 718 -2.8 -14.7°
Enters shadow 19:10:38 27° 64° (ENE) 835 -2.7 -14.9°
